Simultaneous Nadir Overpasses (SNOs) Predictions

Prediction of SNOs between AQUA and GOES-15 Satellite Orbit:

Table of predicted SNOs for the next 14.0 days since TLE Epoch: 11/10/2018
Index Date Time (AQUA) AQUA Lat,Lon GOES-15 Lat,Lon Distance(km) Time Diff (sec)
1 11/10/2018 10:25:19 1.06,-132.30 0.10,-127.92 498.60 80
2 11/11/2018 21:51:52 0.65,-124.18 -0.13,-127.88 420.51 80
3 11/12/2018 10:13:07 0.41,-129.35 0.11,-128.00 153.91 80
4 11/14/2018 10:00:55 -0.24,-126.39 0.11,-128.07 190.45 80
5 11/14/2018 22:22:19 -0.85,-131.58 -0.08,-127.98 409.39 80
6 11/16/2018 22:10:07 -0.18,-128.63 -0.08,-128.05 65.25 80
7 11/18/2018 21:57:54 0.42,-125.66 -0.09,-128.12 278.60 80
8 11/19/2018 10:19:11 0.60,-130.84 0.06,-128.24 294.92 80
9 11/21/2018 10:06:58 -0.01,-127.87 0.07,-128.30 48.21 80
10 11/23/2018 09:54:46 -0.67,-124.92 0.07,-128.35 390.55 80
11 11/23/2018 22:16:09 -0.44,-130.10 -0.05,-128.25 210.71 80




NCC Satellite Simultaneous Nadir Overpasses (SNOs) Prediction Service
